AirNav   Textron
 
 965 users online  

CT74 Westford Airstrip
Ashford/Westford, Connecticut, USA

GOING TO ASHFORD/WESTFORD?


FAA INFORMATION EFFECTIVE 09 NOVEMBER 2017

Location

FAA Identifier: CT74
Lat/Long: 41-57-02.3480N / 072-10-53.2780W
41-57.039133N / 072-10.887967W
41.9506522 / -72.1814661
(estimated)
Elevation: 900 ft. / 274 m (estimated)
Variation: 15W (1985)
From city: 2 miles N of central business district of the associated city
Time zone: UTC -5 (UTC -4 during Daylight Saving Time)
Zip code: 06278

Airport Operations

Airport use: Private use. Permission required prior to landing
Activation date: 12/1977
Control tower: no
ARTCC: BOSTON CENTER
FSS: BRIDGEPORT FLIGHT SERVICE STATION
Attendance: UNATNDD
Wind indicator: yes
Segmented circle: no

Airport Communications

WX ASOS at IJD (12 nm S): 133.675 (860-456-8839)
WX AWOS-3 at LZD (15 nm SE): 119.125 (860-779-7251)

Nearby radio navigation aids

VOR radial/distance  VOR name  Freq  Var
PUTr283/15.1PUTNAM VOR/DME117.4014W
CEFr148/21.3WESTOVER VORTAC114.0014W
HFDr054/24.8HARTFORD VOR/DME114.9013W
ORWr355/25.0NORWICH VOR/DME110.0014W
BAFr132/27.0BARNES VORTAC113.0014W
GDMr203/36.1GARDNER VOR/DME110.6014W
PVDr306/36.2PROVIDENCE VOR/DME115.6014W
GONr005/37.7GROTON VOR/DME110.8514W
CTRr134/39.8CHESTER VOR/DME115.1013W

Airport Services

Runway Information

Runway N/S

Dimensions: 1300 x 200 ft. / 396 x 61 m
Surface: turf
RUNWAY N  RUNWAY S
Traffic pattern: leftleft

Airport Ownership and Management from official FAA records

Ownership: Privately-owned
Owner: CHARLES J. WOYTIK
343 WATERFALL RD.
ASHFORD, CT 06278
Phone (860) 487-4392
Manager: DANIEL J BRNDIAR
61 LEADMINE RD
ASHFORD, CT 06278
Phone 860-487-4392

Airport Operational Statistics

Aircraft based on the field: 2
Single engine airplanes: 1
Ultralights: 1
    

Instrument Procedures

There are no published instrument procedures at CT74.

Some nearby airports with instrument procedures:

3B0 - Southbridge Municipal Airport (11 nm NE)
KIJD - Windham Airport (12 nm S)
KLZD - Danielson Airport (15 nm SE)
KCEF - Westover Air Reserve Base/Metropolitan Airport (21 nm NW)
KBDL - Bradley International Airport (22 nm W)
 
Loc | Ops | Rwys | IFR | FBO | Links
Com | Nav | Svcs | Stats | Notes

Silver City Flying Club
 
Area around CT74 (Westford Airstrip)
 
Road maps at: MapQuest Bing Google
 
Aerial photo
No photo
 
Sectional chart

 
Airport distance calculator
Flying to Westford Airstrip? Find the distance to fly.

From to CT74

Sunrise and sunset
Times for 24-Nov-2017
 Local
(UTC-5)
 Zulu
(UTC)
Morning civil twilight06:2011:20
Sunrise06:5011:50
Sunset16:2121:21
Evening civil twilight16:5121:51

Current date and time
Zulu (UTC)  24-Nov-2017 19:43:01
Local (UTC-5)  24-Nov-2017 14:43:01
 
METAR
KIJD 
12nm S 
241852Z AUTO 18006KT 10SM CLR 11/M03 A2997 RMK AO2 SLP148 T01061033
KCEF 
21nm NW 
241856Z 17008KT 10SM FEW250 10/M05 A2993 RMK AO2A SLP143 T00971047
KBDL 
22nm W 
241851Z 18009KT 10SM CLR 10/M04 A2995 RMK AO2 SLP143 T01001039
KORH 
24nm NE 
241854Z 24010KT 10SM CLR 07/M05 A2992 RMK AO2 SLP142 T00721050
TAF
KCEF 
21nm NW 
241526Z 2415/2517 20009KT 9999 FEW050 QNH2986INS BECMG 2505/2506 20006KT 9999 FEW180 530204 QNH2975INS BECMG 2513/2514 20012G18KT 9999 FEW180 530204 QNH2970INS TX09/2421Z TN00/2509Z
KBDL 
22nm W 
241735Z 2418/2524 17005KT P6SM FEW250 FM250000 21005KT P6SM SCT250 FM251500 21008KT P6SM FEW100 BKN250 FM252200 23005KT P6SM BKN100 OVC200
KORH 
24nm NE 
241735Z 2418/2518 24009KT P6SM FEW250 FM250600 22010G18KT P6SM FEW250 FM251300 22013G19KT P6SM SCT100 BKN250
NOTAMs
Click for the latest NOTAMs
NOTAMs are issued by the DoD/FAA and will open in a separate window not controlled by AirNav.

 

 
 

Would you like to see your business listed on this page?

 If your business provides an interesting product or service to pilots, flight crews, aircraft, or users of the Westford Airstrip, you should consider listing it here.  To start the listing process, click on the button below
 
Add a business
 

Other Pages about Westford Airstrip

Update a link
 
Copyright © AirNav, LLC. All rights reserved. Privacy Policy  Contact